Terminal Aerodrome Forecast
Issued by NWS

Home | Current Version | Previous Version | Text Only | Print | Product List | Glossary On
Versions: 1 2 3 4 5 6 7 8 9 10 11 12 13 14 15 16 17 18 19 20 21
000
FTUS42 KJAX 252300
TAFVQQ
TAF
KVQQ 252340Z 2600/2624 24002KT P6SM FEW035 BKN250
      TEMPO 2607/2611 5SM BR
     FM261700 26008KT P6SM VCTS SCT040CB=

USA.gov is the U.S. government's official web portal to all federal, state and local government web resources and services.